Ho Chi Minh City International Airport

Airport
ICAO code: 
VVTS
IATA Code: 
SGN
Summary
ICAO Region: 
APAC
Territory: 
Location: 
Ho Chi Minh City, Ho Chi Minh City
Serving: 
Ho Chi Minh City
Elevation: 
33 ft
Coordinates: 
Aerial View: 
10° 49' 14.016" N, 106° 39' 38.988" E
Metar
Observation
VVTS 240730Z VRB02KT 8000 BKN020 34/20 Q1008 NOSIG
Station
Ho Chi Minh
Date/Time
2022-01-24 07:30:00
Wind speed
02 kts
Lowest cloud amount
broken clouds
Temperature
34°C
Dew point
20°C
Humidity
44%
QNH
1008 hPa
Weather condition
n/a

Description

International airport serving Ho Chi Minh City, Vietnam.

Climatology

Tropical savannah climate (Köppen climate classification Aw)

Runways

Designator Length Width Surface Rops
07L/25R 3048 45 CON Yes/Yes
07R/25L 3800 45 CON Yes/Yes
Airport map: 
Aerial View: 

SKYbrary Partners:

Safety knowledge contributed by: